RADUGA 11 [-]

Last updated on Aug. 13, 2020, 5:30 a.m. UTC

1 13669U 82113A   20225.75215729 -.00000148  00000-0  00000-0 0  9993
2 13669  13.2974 328.5064 0036908 237.2499 158.4993  0.97709535100682
UTC
Height (km)
Latitude
Longitude
Inclination
Orbital Period
UTC large
Height (km)
Speed (km/s)
/
Latitude / Longitude
Inclination (degrees)
Orbital Period (minutes)
Azimuth
Elevation
Range (km)
Doppler Factor
iOS Compass Heading
iOS Angle

Next 30 passes for location: Hong Kong

Rise time Rise Azimuth (degrees) Set time Set Azimuth (degrees) Duration Max altitude (degrees)

No matching passes for this satellites